Location: Basses Si�yes
(44.0835°N, 6.2037°E)
Time: 09:35:22
(UTC+00:00)

Cosmos 2034 Rocket - Pass Details

Date: 27 February 2020
Orbit: 959 x 1000 km, 82.9° (Epoch: 09 April)

Event Time Altitude Azimuth Distance (km) Brightness Sun altitude
Rises 18:25:13 0° 170° (S) 3,634 6.9 -12.5°
Reaches altitude 10° 18:27:46 10° 165° (SSE) 2,688 6.2 -12.9°
Maximum altitude 18:33:40 51° 91° (E) 1,186 4.1 -14.0°
Drops below altitude 10° 18:39:37 10° 17° (NNE) 2,702 6.2 -15.0°
Sets 18:42:11 0° 13° (NNE) 3,655 6.9 -15.5°
